| time (UTC) | temp F | wind direction | speed MPH | gust MPH | rain 1hr in | rain 24hr in | rain mn in | humidity % | barometer mb |
| 20260903213529 | 92 | 101 | 3.0 | 6.0 | 0.00 | 0.00 | 0.00 | 64 | 1014.9 |
| 20260903212540 | 92 | 156 | 4.0 | 6.0 | 0.00 | 0.00 | 0.00 | 65 | 1015.0 |
| 20260903211527 | 91 | 162 | 5.0 | 6.0 | 0.00 | 0.00 | 0.00 | 67 | 1014.9 |
| 20260903210555 | 91 | 147 | 3.0 | 7.0 | 0.00 | 0.00 | 0.00 | 69 | 1015.0 |
| 20260903205544 | 93 | 154 | 3.0 | 5.0 | 0.00 | 0.00 | 0.00 | 66 | 1015.1 |
| 20260903204531 | 93 | 156 | 3.0 | 5.0 | 0.00 | 0.00 | 0.00 | 61 | 1015.1 |
| 20260903203521 | 93 | 137 | 1.0 | 5.0 | 0.00 | 0.00 | 0.00 | 59 | 1015.1 |
| 20260903202529 | 93 | 78 | 1.0 | 5.0 | 0.00 | 0.00 | 0.00 | 58 | 1015.0 |
| 20260903201537 | 94 | 137 | 2.0 | 3.0 | 0.00 | 0.00 | 0.00 | 56 | 1015.2 |
| 20260903200526 | 95 | 103 | 2.0 | 5.0 | 0.00 | 0.00 | 0.00 | 55 | 1015.3 |
| 20260903195535 | 97 | 65 | 2.0 | 5.0 | 0.00 | 0.00 | 0.00 | 53 | 1015.2 |
| 20260903194524 | 96 | 145 | 3.0 | 4.0 | 0.00 | 0.00 | 0.00 | 57 | 1015.3 |
| 20260903193532 | 96 | 155 | 3.0 | 6.0 | 0.00 | 0.00 | 0.00 | 57 | 1015.3 |
| 20260903192542 | 95 | 300 | 1.0 | 4.0 | 0.00 | 0.00 | 0.00 | 59 | 1015.6 |
| 20260903191530 | 95 | 163 | 3.0 | 6.0 | 0.00 | 0.00 | 0.00 | 61 | 1015.7 |
| 20260903190519 | 94 | 129 | 3.0 | 7.0 | 0.00 | 0.00 | 0.00 | 62 | 1015.8 |
| 20260903185548 | 94 | 123 | 3.0 | 7.0 | 0.00 | 0.00 | 0.00 | 61 | 1016.0 |
| 20260903184534 | 94 | 161 | 4.0 | 8.0 | 0.00 | 0.00 | 0.00 | 59 | 1016.1 |
| 20260903183527 | 94 | 29 | 2.0 | 3.0 | 0.00 | 0.00 | 0.00 | 61 | 1016.3 |
| 20260903182532 | 93 | 188 | 2.0 | 5.0 | 0.00 | 0.00 | 0.00 | 66 | 1016.4 |
| 20260903181521 | 91 | 134 | 1.0 | 4.0 | 0.00 | 0.00 | 0.00 | 70 | 1016.4 |
| 20260903180530 | 92 | 13 | 3.0 | 5.0 | 0.00 | 0.00 | 0.00 | 68 | 1016.4 |
| 20260903175519 | 93 | 42 | 3.0 | 6.0 | 0.00 | 0.00 | 0.00 | 68 | 1016.4 |
| 20260903174548 | 94 | 13 | 4.0 | 7.0 | 0.00 | 0.00 | 0.00 | 66 | 1016.7 |
| 20260903173535 | 94 | 69 | 3.0 | 5.0 | 0.00 | 0.00 | 0.00 | 66 | 1016.8 |
| 20260903172545 | 95 | 14 | 2.0 | 4.0 | 0.00 | 0.00 | 0.00 | 65 | 1017.0 |
| 20260903171532 | 94 | 8 | 2.0 | 4.0 | 0.00 | 0.00 | 0.00 | 66 | 1017.1 |
| 20260903170521 | 93 | 29 | 3.0 | 6.0 | 0.00 | 0.00 | 0.00 | 67 | 1017.3 |
| 20260903165529 | 93 | 26 | 3.0 | 3.0 | 0.00 | 0.00 | 0.00 | 68 | 1017.4 |
| 20260903164519 | 92 | 32 | 3.0 | 6.0 | 0.00 | 0.00 | 0.00 | 67 | 1017.5 |
| 20260903163527 | 92 | 12 | 3.0 | 5.0 | 0.00 | 0.00 | 0.00 | 69 | 1017.6 |
| 20260903162535 | 91 | 72 | 3.0 | 5.0 | 0.00 | 0.00 | 0.00 | 69 | 1017.6 |
| 20260903161524 | 91 | 45 | 3.0 | 7.0 | 0.00 | 0.00 | 0.00 | 71 | 1017.6 |
| 20260903160553 | 91 | 2 | 3.0 | 4.0 | 0.00 | 0.00 | 0.00 | 72 | 1017.6 |
| 20260903155521 | 90 | 2 | 3.0 | 6.0 | 0.00 | 0.00 | 0.00 | 73 | 1017.5 |
| 20260903154549 | 90 | 39 | 4.0 | 7.0 | 0.00 | 0.00 | 0.00 | 73 | 1017.4 |
| 20260903153519 | 90 | 86 | 2.0 | 6.0 | 0.00 | 0.00 | 0.00 | 75 | 1017.3 |
| 20260903152547 | 89 | 33 | 2.0 | 5.0 | 0.00 | 0.00 | 0.00 | 75 | 1017.2 |
| 20260903151535 | 89 | 36 | 2.0 | 4.0 | 0.00 | 0.00 | 0.00 | 76 | 1017.2 |
| 20260903150524 | 88 | 13 | 2.0 | 4.0 | 0.00 | 0.00 | 0.00 | 78 | 1017.2 |
| 20260903145535 | 87 | 7 | 2.0 | 4.0 | 0.00 | 0.00 | 0.00 | 81 | 1017.1 |
| 20260903144522 | 87 | 60 | 1.0 | 2.0 | 0.00 | 0.00 | 0.00 | 80 | 1017.2 |
| 20260903143530 | 88 | 41 | 1.0 | 3.0 | 0.00 | 0.00 | 0.00 | 80 | 1017.2 |
| 20260903142538 | 88 | 7 | 2.0 | 4.0 | 0.00 | 0.00 | 0.00 | 81 | 1017.2 |
| 20260903141527 | 88 | 348 | 2.0 | 5.0 | 0.00 | 0.00 | 0.00 | 78 | 1017.2 |
| 20260903140535 | 85 | 0.0 | 0.0 | 0.00 | 0.00 | 0.00 | 82 | 1017.2 | |
| 20260903135545 | 84 | 0.0 | 0.0 | 0.00 | 0.00 | 0.00 | 84 | 1017.3 | |
| 20260903134534 | 83 | 0.0 | 0.0 | 0.00 | 0.00 | 0.00 | 86 | 1017.3 | |
| 20260903133522 | 82 | 0.0 | 0.0 | 0.00 | 0.00 | 0.00 | 92 | 1017.3 | |
| 20260903132530 | 81 | 0.0 | 0.0 | 0.00 | 0.00 | 0.00 | 96 | 1017.3 | |
| 20260903131520 | 80 | 18 | 0.0 | 2.0 | 0.00 | 0.00 | 0.00 | 97 | 1017.3 |
| 20260903130527 | 80 | 0.0 | 0.0 | 0.00 | 0.00 | 0.00 | 97 | 1017.3 | |
| 20260903125535 | 79 | 0.0 | 0.0 | 0.00 | 0.00 | 0.00 | 98 | 1017.3 | |
| 20260903124525 | 79 | 0.0 | 0.0 | 0.00 | 0.00 | 0.00 | 98 | 1017.2 | |
| 20260903123533 | 78 | 0.0 | 0.0 | 0.00 | 0.00 | 0.00 | 98 | 1017.1 | |
| 20260903122543 | 78 | 0.0 | 0.0 | 0.00 | 0.00 | 0.00 | 98 | 1017.2 | |
| 20260903121551 | 77 | 0.0 | 0.0 | 0.00 | 0.00 | 0.00 | 98 | 1017.1 | |
| 20260903120520 | 77 | 0.0 | 0.0 | 0.00 | 0.00 | 0.00 | 98 | 1017.1 | |
| 20260903115528 | 77 | 0.0 | 0.0 | 0.00 | 0.00 | 0.00 | 98 | 1017.0 | |
| 20260903114536 | 77 | 0.0 | 0.0 | 0.00 | 0.00 | 0.00 | 98 | 1017.0 | |
| 20260903113526 | 77 | 0.0 | 0.0 | 0.00 | 0.00 | 0.00 | 98 | 1016.8 | |
| 20260903112534 | 77 | 0.0 | 0.0 | 0.00 | 0.00 | 0.00 | 98 | 1016.7 | |
| 20260903111523 | 77 | 0.0 | 0.0 | 0.00 | 0.00 | 0.00 | 98 | 1016.4 | |
| 20260903110551 | 77 | 0.0 | 0.0 | 0.00 | 0.00 | 0.00 | 98 | 1016.4 | |
| 20260903105541 | 78 | 0.0 | 0.0 | 0.00 | 0.00 | 0.00 | 98 | 1016.4 | |
| 20260903104609 | 78 | 0.0 | 0.0 | 0.00 | 0.00 | 0.00 | 98 | 1016.3 | |
| 20260903103537 | 78 | 0.0 | 0.0 | 0.00 | 0.00 | 0.00 | 97 | 1016.3 | |
| 20260903102526 | 78 | 0.0 | 0.0 | 0.00 | 0.00 | 0.00 | 97 | 1016.2 | |
| 20260903101555 | 78 | 0.0 | 0.0 | 0.00 | 0.00 | 0.00 | 97 | 1016.2 | |
| 20260903100524 | 78 | 0.0 | 0.0 | 0.00 | 0.00 | 0.00 | 97 | 1016.2 | |
| 20260903095532 | 78 | 0.0 | 0.0 | 0.00 | 0.00 | 0.00 | 97 | 1016.2 | |
| 20260903094521 | 78 | 0.0 | 0.0 | 0.00 | 0.00 | 0.00 | 97 | 1016.1 | |
| 20260903093529 | 78 | 0.0 | 0.0 | 0.00 | 0.00 | 0.00 | 97 | 1016.0 | |
| 20260903092537 | 78 | 0.0 | 0.0 | 0.00 | 0.00 | 0.00 | 97 | 1016.0 | |
| 20260903091527 | 78 | 0.0 | 0.0 | 0.00 | 0.00 | 0.00 | 96 | 1016.1 | |
| 20260903090535 | 78 | 0.0 | 0.0 | 0.00 | 0.00 | 0.00 | 96 | 1016.1 | |
| 20260903085524 | 78 | 0.0 | 0.0 | 0.00 | 0.00 | 0.00 | 96 | 1016.0 | |
| 20260903084532 | 78 | 0.0 | 0.0 | 0.00 | 0.00 | 0.00 | 96 | 1016.1 | |
| 20260903083524 | 78 | 0.0 | 0.0 | 0.00 | 0.00 | 0.00 | 96 | 1016.1 | |
| 20260903082550 | 78 | 0.0 | 0.0 | 0.00 | 0.00 | 0.00 | 96 | 1016.2 | |
| 20260903081519 | 78 | 0.0 | 0.0 | 0.00 | 0.00 | 0.00 | 95 | 1016.1 | |
| 20260903080527 | 78 | 0.0 | 0.0 | 0.00 | 0.00 | 0.00 | 95 | 1016.1 | |
| 20260903075535 | 78 | 0.0 | 0.0 | 0.00 | 0.00 | 0.00 | 95 | 1016.1 | |
| 20260903074527 | 78 | 0.0 | 0.0 | 0.00 | 0.00 | 0.00 | 95 | 1016.1 | |
| 20260903073532 | 79 | 0.0 | 0.0 | 0.00 | 0.00 | 0.00 | 94 | 1016.1 | |
| 20260903072522 | 79 | 0.0 | 0.0 | 0.00 | 0.00 | 0.00 | 94 | 1016.2 | |
| 20260903071530 | 79 | 0.0 | 0.0 | 0.00 | 0.00 | 0.00 | 94 | 1016.4 | |
| 20260903070748 | 0 | 0.0 | 0.0 | 0.00 | 0.00 | 0.00 | 1016.5 | ||
| 20260903070522 | 79 | 0.0 | 0.0 | 0.00 | 0.00 | 0.00 | 94 | 1016.5 | |
| 20260903065527 | 79 | 0.0 | 0.0 | 0.00 | 0.00 | 0.00 | 94 | 1016.6 | |
| 20260903064536 | 79 | 0.0 | 0.0 | 0.00 | 0.00 | 0.00 | 94 | 1016.6 | |
| 20260903063525 | 79 | 0.0 | 0.0 | 0.00 | 0.00 | 0.00 | 93 | 1016.7 | |
| 20260903062533 | 80 | 0.0 | 0.0 | 0.00 | 0.00 | 0.00 | 93 | 1016.9 | |
| 20260903061523 | 80 | 0.0 | 0.0 | 0.00 | 0.00 | 0.00 | 93 | 1016.8 | |
| 20260903060531 | 80 | 0.0 | 0.0 | 0.00 | 0.00 | 0.00 | 93 | 1016.9 | |
| 20260903055520 | 80 | 0.0 | 0.0 | 0.00 | 0.00 | 0.00 | 92 | 1016.9 | |
| 20260903054528 | 80 | 0.0 | 0.0 | 0.00 | 0.00 | 0.00 | 92 | 1017.0 | |
| 20260903053536 | 80 | 0.0 | 0.0 | 0.00 | 0.00 | 0.00 | 91 | 1017.0 | |
| 20260903052526 | 80 | 0.0 | 0.0 | 0.00 | 0.00 | 0.00 | 91 | 1017.1 | |
| 20260903051534 | 80 | 0.0 | 0.0 | 0.00 | 0.00 | 0.00 | 91 | 1017.1 | |
| 20260903050523 | 81 | 0.0 | 0.0 | 0.00 | 0.00 | 0.00 | 91 | 1017.1 | |
| 20260903045531 | 81 | 0.0 | 0.0 | 0.00 | 0.00 | 0.00 | 90 | 1017.1 | |
| 20260903044521 | 81 | 0.0 | 0.0 | 0.00 | 0.00 | 0.00 | 90 | 1017.3 | |
| 20260903043549 | 81 | 0.0 | 0.0 | 0.00 | 0.00 | 0.00 | 90 | 1017.4 | |
| 20260903042537 | 81 | 0.0 | 0.0 | 0.00 | 0.00 | 0.00 | 89 | 1017.3 | |
| 20260903041526 | 81 | 0.0 | 0.0 | 0.00 | 0.00 | 0.00 | 89 | 1017.3 | |
| 20260903040534 | 81 | 0.0 | 0.0 | 0.00 | 0.00 | 0.00 | 89 | 1017.3 | |
| 20260903035524 | 82 | 0.0 | 0.0 | 0.00 | 0.00 | 0.00 | 88 | 1017.3 | |
| 20260903034532 | 82 | 0.0 | 0.0 | 0.00 | 0.00 | 0.00 | 88 | 1017.4 | |
| 20260903033521 | 82 | 0.0 | 0.0 | 0.00 | 0.00 | 0.00 | 87 | 1017.4 | |
| 20260903032529 | 82 | 0.0 | 0.0 | 0.00 | 0.00 | 0.00 | 87 | 1017.4 | |
| 20260903031537 | 82 | 0.0 | 0.0 | 0.00 | 0.00 | 0.00 | 87 | 1017.5 | |
| 20260903030527 | 83 | 0.0 | 0.0 | 0.00 | 0.00 | 0.00 | 86 | 1017.4 | |
| 20260903025535 | 83 | 0.0 | 0.0 | 0.00 | 0.00 | 0.00 | 86 | 1017.5 | |
| 20260903024524 | 83 | 0.0 | 0.0 | 0.00 | 0.00 | 0.00 | 86 | 1017.4 | |
| 20260903023552 | 83 | 0.0 | 0.0 | 0.00 | 0.00 | 0.00 | 86 | 1017.4 | |
| 20260903022602 | 83 | 180 | 0.0 | 1.0 | 0.00 | 0.00 | 0.00 | 85 | 1017.3 |
| 20260903021550 | 84 | 0.0 | 0.0 | 0.00 | 0.00 | 0.00 | 84 | 1017.2 | |
| 20260903020519 | 84 | 135 | 0.0 | 2.0 | 0.00 | 0.00 | 0.00 | 84 | 1017.1 |
| 20260903015527 | 84 | 0.0 | 0.0 | 0.00 | 0.00 | 0.00 | 82 | 1017.0 | |
| 20260903014535 | 85 | 134 | 1.0 | 3.0 | 0.00 | 0.00 | 0.00 | 82 | 1016.9 |
| 20260903013524 | 85 | 0.0 | 0.0 | 0.00 | 0.00 | 0.00 | 81 | 1016.8 | |
| 20260903012532 | 85 | 270 | 0.0 | 2.0 | 0.00 | 0.00 | 0.00 | 81 | 1016.7 |
| 20260903011522 | 85 | 0.0 | 0.0 | 0.00 | 0.00 | 0.00 | 80 | 1016.6 | |
| 20260903010530 | 86 | 0.0 | 0.0 | 0.00 | 0.00 | 0.00 | 80 | 1016.4 | |
| 20260903005519 | 86 | 0.0 | 0.0 | 0.00 | 0.00 | 0.00 | 79 | 1016.3 | |
| 20260903004527 | 86 | 145 | 2.0 | 4.0 | 0.00 | 0.00 | 0.00 | 77 | 1016.2 |
| 20260903003536 | 87 | 98 | 0.0 | 2.0 | 0.00 | 0.00 | 0.00 | 76 | 1016.2 |
| 20260903002525 | 87 | 145 | 1.0 | 2.0 | 0.00 | 0.00 | 0.00 | 76 | 1016.1 |
| 20260903001533 | 87 | 145 | 1.0 | 3.0 | 0.00 | 0.00 | 0.00 | 76 | 1016.2 |
| 20260903000523 | 88 | 135 | 1.0 | 3.0 | 0.00 | 0.00 | 0.00 | 75 | 1016.2 |
| 20260902235531 | 88 | 164 | 1.0 | 2.0 | 0.00 | 0.00 | 0.00 | 73 | 1016.3 |
| 20260902234520 | 88 | 158 | 2.0 | 4.0 | 0.00 | 0.00 | 0.00 | 73 | 1016.2 |
| 20260902233548 | 89 | 0.0 | 0.0 | 0.00 | 0.00 | 0.00 | 71 | 1016.3 | |
| 20260902232536 | 89 | 147 | 3.0 | 4.0 | 0.00 | 0.00 | 0.00 | 71 | 1016.3 |
| 20260902231526 | 89 | 226 | 3.0 | 5.0 | 0.00 | 0.00 | 0.00 | 70 | 1016.3 |
| 20260902230533 | 90 | 217 | 2.0 | 4.0 | 0.00 | 0.00 | 0.00 | 70 | 1016.2 |
| 20260902225523 | 91 | 189 | 0.0 | 2.0 | 0.00 | 0.00 | 0.00 | 68 | 1016.2 |
| 20260902224551 | 92 | 218 | 1.0 | 5.0 | 0.00 | 0.00 | 0.00 | 66 | 1016.2 |
| 20260902223520 | 92 | 221 | 2.0 | 5.0 | 0.00 | 0.00 | 0.00 | 65 | 1016.3 |
| 20260902222529 | 92 | 185 | 3.0 | 4.0 | 0.00 | 0.00 | 0.00 | 66 | 1016.4 |
| 20260902221536 | 92 | 133 | 2.0 | 4.0 | 0.00 | 0.00 | 0.00 | 67 | 1016.5 |
| 20260902220525 | 92 | 138 | 2.0 | 5.0 | 0.00 | 0.00 | 0.00 | 68 | 1016.6 |
| 20260902215554 | 91 | 160 | 2.0 | 4.0 | 0.00 | 0.00 | 0.00 | 69 | 1016.7 |
| 20260902214523 | 89 | 162 | 2.0 | 4.0 | 0.00 | 0.00 | 0.00 | 71 | 1016.8 |